TimeEST,TemperatureF,Dew PointF,Humidity,Sea Level PressureIn,VisibilityMPH,Wind Direction,Wind SpeedMPH,Gust SpeedMPH,PrecipitationIn,Events,Conditions,WindDirDegrees,DateUTC
12:47 AM,28.4,23.0,80,29.78,10.0,NW,13.8,20.7,0.00,,Light Freezing Drizzle,310,2013-12-30 05:47:00
1:54 AM,27.0,21.0,78,29.84,10.0,West,15.0,21.9,0.00,,Light Freezing Drizzle,280,2013-12-30 06:54:00
2:23 AM,26.6,17.6,69,29.84,10.0,West,17.3,25.3,0.00,,Overcast,280,2013-12-30 07:23:00
2:38 AM,26.6,17.6,69,29.85,10.0,WNW,16.1,25.3,0.00,,Overcast,290,2013-12-30 07:38:00
2:54 AM,26.1,17.1,69,29.89,10.0,WNW,16.1,23.0,0.00,,Overcast,290,2013-12-30 07:54:00
3:47 AM,24.8,17.6,74,29.90,9.0,WNW,13.8,23.0,0.00,Snow,Light Snow,300,2013-12-30 08:47:00
3:54 AM,24.1,16.0,71,29.94,9.0,WNW,16.1,23.0,0.00,Snow,Light Snow,300,2013-12-30 08:54:00
4:18 AM,23.0,15.8,74,29.92,6.0,WNW,17.3,24.2,0.00,Snow,Light Snow,300,2013-12-30 09:18:00
4:31 AM,23.0,14.0,68,29.93,9.0,WNW,18.4,25.3,0.00,Snow,Light Snow,300,2013-12-30 09:31:00
4:54 AM,23.0,14.0,68,29.98,10.0,NW,9.2,23.0,0.00,,Overcast,310,2013-12-30 09:54:00
5:04 AM,21.2,15.8,80,29.96,8.0,NW,13.8,21.9,0.00,Snow,Light Snow,310,2013-12-30 10:04:00
5:40 AM,21.2,10.4,63,30.00,10.0,WNW,17.3,25.3,0.00,,Overcast,300,2013-12-30 10:40:00
5:54 AM,21.0,10.9,65,30.04,10.0,WNW,21.9,28.8,0.00,Snow,Light Snow,290,2013-12-30 10:54:00
6:19 AM,19.4,10.4,68,30.03,8.0,WNW,16.1,24.2,0.00,Snow,Light Snow,300,2013-12-30 11:19:00
6:54 AM,19.9,10.0,65,30.10,8.0,NW,17.3,27.6,0.00,Snow,Light Snow,310,2013-12-30 11:54:00
7:27 AM,19.4,10.4,68,30.09,9.0,WNW,10.4,20.7,0.00,Snow,Light Snow,300,2013-12-30 12:27:00
7:54 AM,19.0,10.9,71,30.13,4.0,WNW,13.8,-,0.00,Snow,Light Snow,290,2013-12-30 12:54:00
8:05 AM,19.4,12.2,74,30.10,2.0,WNW,11.5,-,0.00,Snow,Light Snow,290,2013-12-30 13:05:00
8:28 AM,19.4,12.2,74,30.11,6.0,NNW,10.4,-,0.00,Snow,Light Snow,330,2013-12-30 13:28:00
8:54 AM,18.0,12.0,78,30.16,6.0,NNW,15.0,-,0.00,Snow,Light Snow,340,2013-12-30 13:54:00
9:18 AM,17.6,12.2,79,30.14,3.0,NNW,10.4,20.7,0.00,Snow,Light Snow,340,2013-12-30 14:18:00
9:54 AM,18.0,12.0,78,30.19,3.0,NNW,12.7,-,0.00,Snow,Light Snow,340,2013-12-30 14:54:00
10:54 AM,17.1,12.0,81,30.22,3.0,NNW,10.4,-,0.00,Snow,Light Snow,340,2013-12-30 15:54:00
11:16 AM,17.6,12.2,79,30.18,1.5,NNW,11.5,-,0.00,Snow,Light Snow,340,2013-12-30 16:16:00
11:54 AM,17.1,10.9,77,30.23,1.5,NNW,8.1,-,0.00,Snow,Light Snow,340,2013-12-30 16:54:00
11:57 AM,17.6,10.4,73,30.19,6.0,NNW,9.2,-,0.00,,Haze,340,2013-12-30 16:57:00
12:06 PM,17.6,10.4,73,30.19,3.0,NNW,9.2,-,0.00,Snow,Light Snow,340,2013-12-30 17:06:00
12:26 PM,17.6,10.4,73,30.18,1.5,NW,10.4,-,0.00,Snow,Light Snow,320,2013-12-30 17:26:00
12:31 PM,17.6,10.4,73,30.18,1.5,NW,12.7,-,0.00,Snow,Light Snow,320,2013-12-30 17:31:00
12:54 PM,18.0,10.9,74,30.22,4.0,NW,9.2,-,0.00,Snow,Light Snow,320,2013-12-30 17:54:00
1:54 PM,19.0,12.0,74,30.22,3.0,North,10.4,-,0.00,Snow,Light Snow,350,2013-12-30 18:54:00
2:09 PM,17.6,10.4,73,30.18,1.0,NNW,10.4,-,0.00,Snow,Light Snow,340,2013-12-30 19:09:00
2:48 PM,17.6,10.4,73,30.19,1.0,North,10.4,-,0.00,Snow,Light Snow,350,2013-12-30 19:48:00
2:54 PM,17.1,10.0,74,30.22,5.0,NNW,9.2,-,0.00,Snow,Light Snow,330,2013-12-30 19:54:00
3:02 PM,17.6,8.6,68,30.19,10.0,NW,11.5,-,0.00,,Mostly Cloudy,320,2013-12-30 20:02:00
3:54 PM,16.0,9.0,74,30.24,10.0,NNW,5.8,-,0.00,,Mostly Cloudy,330,2013-12-30 20:54:00
4:54 PM,16.0,9.0,74,30.25,10.0,North,4.6,-,N/A,,Mostly Cloudy,350,2013-12-30 21:54:00
5:54 PM,16.0,10.0,77,30.25,10.0,Calm,Calm,-,N/A,,Overcast,0,2013-12-30 22:54:00
6:54 PM,15.1,8.1,74,30.25,10.0,NNW,5.8,-,N/A,,Mostly Cloudy,340,2013-12-30 23:54:00
7:54 PM,15.1,9.0,77,30.26,10.0,Calm,Calm,-,N/A,,Scattered Clouds,0,2013-12-31 00:54:00
8:54 PM,15.1,9.0,77,30.25,10.0,North,3.5,-,N/A,,Overcast,360,2013-12-31 01:54:00
9:54 PM,16.0,10.0,77,30.25,10.0,Calm,Calm,-,N/A,,Overcast,0,2013-12-31 02:54:00
10:54 PM,16.0,10.0,77,30.24,10.0,Calm,Calm,-,N/A,,Overcast,0,2013-12-31 03:54:00
11:54 PM,17.1,9.0,71,30.21,10.0,Calm,Calm,-,N/A,,Overcast,0,2013-12-31 04:54:00